[Iaude] MPEC E103: 2024 ED2 [a=2.04,e=0.57,i=11.4,H=22.9]
    mpec at cfa.harvard.edu 
    mpec at cfa.harvard.edu
       
    Wed Mar  6 20:04:48 EST 2024
    
    
  
M.P.E.C. 2024-E103                                Issued 2024 March 7, 01:00 UT
     The Minor Planet Electronic Circulars contain information on unusual
         minor planets, routine data on comets and natural satellites,
         and occasional editorial announcements.  They are published
    on behalf of Division F of the International Astronomical Union by the
          Minor Planet Center, Smithsonian Astrophysical Observatory,
                          Cambridge, MA 02138, U.S.A.
			  
             Prepared using the Tamkin Foundation Computer Network
                              MPC at CFA.HARVARD.EDU
            URL https://www.minorplanetcenter.net/    ISSN 1523-6714
                                    2024 ED2                                    
Observations:
     K24E02D  C2024 02 10.36652611 02 23.498+17 01 37.83         22.80GVEE103F52
     K24E02D  C2024 02 10.38014511 02 22.860+17 01 33.14         22.80GVEE103F52
     K24E02D  C2024 02 10.39380011 02 22.200+17 01 28.52         22.74GVEE103F52
     K24E02D  C2024 02 10.40742811 02 21.546+17 01 23.54         22.88GVEE103F52
     K24E02D  C2024 02 10.42173311 02 20.830+17 01 18.55         22.85GVEE103F52
     K24E02D  C2024 02 10.44633411 02 19.600+17 01 09.68         22.23GVEE103F52
     K24E02D  C2024 02 10.45869311 02 18.995+17 01 05.41         22.38GVEE103F52
     K24E02D  C2024 02 12.58658911 00 37.340+16 47 03.30         22.13GVEE103F52
     K24E02D  C2024 02 12.61021611 00 35.928+16 46 53.53         21.92GVEE103F52
     K24E02D  C2024 02 12.62200411 00 35.239+16 46 48.07         22.31GVEE103F52
     K24E02D  C2024 03 01.48495910 28 57.716+12 39 00.90         20.79GVEE103F51
     K24E02D  C2024 03 01.49707410 28 55.418+12 38 42.52         21.04GVEE103F51
     K24E02D  C2024 03 01.50918110 28 53.144+12 38 24.19         20.67GVEE103F51
     K24E02D  C2024 03 01.52128510 28 50.870+12 38 05.84         21.03GVEE103F51
     K24E02D 1C2024 03 05.24602 10 16 46.55 +10 50 43.7          20.7 GVEE103G96
     K24E02D 1C2024 03 05.25129 10 16 45.34 +10 50 33.3          20.7 GVEE103G96
     K24E02D 1C2024 03 05.25655 10 16 44.12 +10 50 22.8          20.5 GVEE103G96
     K24E02D 1C2024 03 05.26182 10 16 42.94 +10 50 12.6          20.8 GVEE103G96
     K24E02D* C2024 03 06.33417010 12 45.235+10 13 21.74         20.81wXEE103F52
     K24E02D  C2024 03 06.34587510 12 42.367+10 12 56.92         20.90wXEE103F52
     K24E02D  C2024 03 06.36944610 12 36.603+10 12 06.43         20.66wXEE103F52
     K24E02D KB2024 03 06.85376210 10 44.77 +09 54 05.3          20.2 GXEE103I93
     K24E02D KB2024 03 06.86223210 10 42.67 +09 53 46.0          20.5 GXEE103I93
     K24E02D KB2024 03 06.87032610 10 40.70 +09 53 27.6          20.1 GXEE103I93
     K24E02D KC2024 03 06.95715110 10 19.23 +09 50 13.6          19.7 GXEE103958
     K24E02D KC2024 03 06.96259310 10 17.84 +09 50 01.9          19.8 GXEE103958
     K24E02D KC2024 03 06.96803410 10 16.51 +09 49 49.1          19.5 GXEE103958
Observer details:
958 Observatoire de Dax.  Observers P. Dupouy, J. B. de Vanssay.  Measurer P.
    Dupouy.  0.43-m f/2.7 Reflector + CCD.
F51 Pan-STARRS 1, Haleakala.  Observers J. Herman, T. Lowe, P. Minguez, A.
    Schultz, I. Smith.  Measurers K. Chambers, T. de Boer, J. Fairlamb, H.
    Gao, M. Huber, C.-C. Lin, E. Magnier, Y. Ramanjooloo, R. Wainscoat, R.
    Weryk.  1.8-m Ritchey-Chretien + CCD.
F52 Pan-STARRS 2, Haleakala.  Observers J. Herman, T. Lowe, P. Minguez, A.
    Schultz, I. Smith.  Measurers K. Chambers, T. de Boer, J. Fairlamb, H.
    Gao, M. Huber, C.-C. Lin, E. Magnier, Y. Ramanjooloo, R. Wainscoat, R.
    Weryk.  1.8-m Ritchey-Chretien + CCD.
G96 Mt. Lemmon Survey.  Observer G. J. Leonard.  Measurers B. Gray, D. Rankin,
    F. C. Shelly.  1.5-m reflector + 10K CCD.
I93 St Pardon de Conques.  Observer F. Losse.  0.40-m f/3.7 reflector + CCD.
Orbital elements:
2024 ED2                                                 Earth MOID = 0.0816 AU
Epoch 2024 Mar. 31.0 TT = JDT 2460400.5                 Veres                   
M 346.88826              (2000.0)            P               Q                  
n   0.33873667     Peri.  257.13318     -0.49806356     +0.86511802             
a   2.0381114      Node   342.61273     -0.69879752     -0.44085178             
e   0.5740355      Incl.   11.42439     -0.51343424     -0.23920809             
P   2.91           H   22.95          G   0.15           U   7                  
Residuals in seconds of arc
240210 F52  0.1-  0.1+    240212 F52  0.0   0.1+    240306 F52  0.1+  0.2-
240210 F52  0.1+  0.1+    240301 F51  0.3+  0.0     240306 F52  0.1-  0.0
240210 F52  0.0   0.2+    240301 F51  0.0   0.0     240306 F52  0.0   0.1+
240210 F52  0.1+  0.0     240301 F51  0.1-  0.0     240306 I93  0.0   0.6+
240210 F52  0.1-  0.1+    240301 F51  0.2-  0.0     240306 I93  0.3-  0.1+
240210 F52  0.3-  0.0     240305 G96  0.0   0.0     240306 I93  0.0   0.3-
240210 F52  0.1-  0.1+    240305 G96  0.0   0.0     240306 958  0.5+  0.3-
240212 F52  0.1+  0.4-    240305 G96  0.2-  0.1-    240306 958  0.1+  0.3+
240212 F52  0.1-  0.3+    240305 G96  0.3+  0.1+    240306 958  0.5+  0.2-
Ephemeris:
2024 ED2                 a,e,i = 2.04, 0.57, 11                  q = 0.8682
Date    TT    R. A. (2000) Decl.     Delta      r    Elong.  Phase     V
2024 02 06    11 04 45.8 +17 25 41   0.4989  1.4503   153.7    17.5    23.2
...
2024 02 21    10 50 12.4 +15 28 17   0.3388  1.3238   170.1     7.4    21.7
...
2024 02 29    10 33 07.8 +13 14 03   0.2671  1.2566   174.1     4.7    21.0
...
2024 03 06    10 14 00.2 +10 25 22   0.2201  1.2069   166.1    11.4    20.8
2024 03 07    10 10 09.1 +09 49 02   0.2128  1.1987   164.4    12.9    20.7
2024 03 08    10 06 05.0 +09 09 50   0.2057  1.1905   162.6    14.5    20.7
...
2024 03 14    09 36 27.8 +04 01 21   0.1672  1.1421   150.0    25.8    20.5
...
2024 03 22    08 38 23.5 -07 13 47   0.1287  1.0803   127.9    46.7    20.4
...
2024 04 06    05 27 49.0 -35 06 07   0.1175  0.9774    75.2    98.1    21.8
M. P. C. Staff               (C) Copyright 2024 MPC           M.P.E.C. 2024-E103
    
    
More information about the Iaude
mailing list